This is the latest recevied weather packets stored in our database for station/object KQ4JKJ. If no packets are shown the sender has not sent any weather packets the latest 10 day(s).
| Time | Temp. | Humidity | Pressure | Rain* | Wind** | Luminosity | Snow |
|---|---|---|---|---|---|---|---|
| 1778022391 | 25° C | 59% | 1009.8 hPa | 0 mm | - | 35 W/m² | - |
| 1778022087 | 25.56° C | 60% | 1009.6 hPa | 0 mm | - | 39 W/m² | - |
| 1778021784 | 25.56° C | 61% | 1009.8 hPa | 0 mm | - | 41 W/m² | - |
| 1778021480 | 25.56° C | 63% | 1009.8 hPa | 0 mm | - | 46 W/m² | - |
| 1778021177 | 25.56° C | 64% | 1010 hPa | 0 mm | - | 46 W/m² | - |
| 1778020874 | 25.56° C | 65% | 1009.8 hPa | 0 mm | - | 49 W/m² | - |
| 1778020572 | 25.56° C | 63% | 1010 hPa | 0 mm | - | 52 W/m² | - |
| 1778020268 | 25.56° C | 62% | 1009.8 hPa | 0 mm | - | 55 W/m² | - |
| 1778019964 | 25.56° C | 61% | 1009.9 hPa | 0 mm | - | 55 W/m² | - |
| 1778019660 | 26.11° C | 60% | 1010 hPa | 0 mm | - | 54 W/m² | - |
| 1778019358 | 26.11° C | 58% | 1010.1 hPa | 0 mm | - | 56 W/m² | - |
| 1778019054 | 26.11° C | 56% | 1010.1 hPa | 0 mm | - | 60 W/m² | - |
| 1778018751 | 26.11° C | 56% | 1010.1 hPa | 0 mm | - | 63 W/m² | - |
| 1778018449 | 26.11° C | 58% | 1010.2 hPa | 0 mm | - | 70 W/m² | - |
| 1778018147 | 26.11° C | 60% | 1010.1 hPa | 0 mm | - | 77 W/m² | - |
| 1778017844 | 26.11° C | 62% | 1009.9 hPa | 0 mm | - | 102 W/m² | - |
| 1778017542 | 26.11° C | 63% | 1009.8 hPa | 0 mm | - | 194 W/m² | - |
| 1778017239 | 26.67° C | 62% | 1009.8 hPa | 0 mm | - | 184 W/m² | - |
| 1778016937 | 26.67° C | 60% | 1009.8 hPa | 0 mm | - | 228 W/m² | - |
| 1778016633 | 26.67° C | 60% | 1009.8 hPa | 0 mm | - | 214 W/m² | - |
| 1778016329 | 27.22° C | 57% | 1009.7 hPa | 0 mm | - | 256 W/m² | - |
| 1778016027 | 27.22° C | 56% | 1009.7 hPa | 0 mm | - | 291 W/m² | - |
| 1778015724 | 27.22° C | 55% | 1009.6 hPa | 0 mm | - | 322 W/m² | - |
| 1778015420 | 27.22° C | 56% | 1009.6 hPa | 0 mm | - | 338 W/m² | - |
| 1778015117 | 27.22° C | 56% | 1009.8 hPa | 0 mm | - | 315 W/m² | - |
* Rain latest hour (hover to see other rain measurements)
** Current wind speed in m/s (hover to see current wind gust speed)